Tracking 18840 objects as of 18-November-2017
HD Live streaming from Space Station
objects crossing your sky now

CZ-4B DEB

Track CZ-4B DEB now!
10-day predictions


NORAD ID: 36290
Int'l Code: 2008-053L
Perigee: 565.1 km
Apogee: 594.3 km
Inclination: 97.6 °
Period: 96.1 minutes
Semi major axis: 6950 km
RCS: 0.0218 m2 (small)
Launch date: October 25, 2008
Source: People's Republic of China (PRC)
Launch site: Taiyaun Space Center, China (TSC)

Note: This is SATELLITE DEBRIS
aabbcc
Your satellite tracking list
Your tracking list is empty




NASA's NSSDC Master Catalog

Two Line Element Set (TLE):
1 36290U 08053L   17321.76285986 +.00000409 +00000-0 +39200-4 0  9992
2 36290 097.6063 306.5199 0021029 021.3695 338.8401 14.98176479259140
Source of the keplerian elements: AFSPC